Regional Weather Roundup
Issued by NWS Green Bay, WI

Home | Current Version | Previous Version | Graphics & Text | Print | Product List | Glossary Off
Versions: 1 2 3 4 5 6 7 8 9 10 11 12 13 14 15 16 17 18 19 20 21 22 23 24 25 26 27 28 29 30 31 32 33 34 35 36 37 38 39 40 41 42 43 44 45 46 47 48 49 50

000
ASUS43 KGRB 020700
RWRGRB

NORTH-CENTRAL AND NORTHEAST WISCONSIN REGIONAL WEATHER ROUNDUP
NATIONAL WEATHER SERVICE GREEN BAY WI
200 AM CDT MON MAY 02 2016

WIZ005-009-010>012-018-019-020800-
NORTH CENTRAL WISCONSIN

CITY           SKY/WX    TMP DP  RH WIND       PRES   REMARKS
IRONWOOD         N/A     30  30 100 CALM      30.11S
MANITOWISH WTR NOT AVBL
ARBOR VITAE    NOT AVBL
EAGLE RIVER    NOT AVBL
LAND O LAKES   NOT AVBL
RHINELANDER    CLEAR     38  30  73 CALM      30.12S
PHILLIPS       NOT AVBL
ANTIGO         NOT AVBL
TOMAHAWK       NOT AVBL
MERRILL        NOT AVBL
$$

WIZ013-073-020800-
NORTHEAST WISCONSIN

CITY           SKY/WX    TMP DP  RH WIND       PRES   REMARKS
IRON MOUNTAIN  CLEAR     32  26  78 CALM      30.09F
MARINETTE      CLEAR     41  30  65 N6        30.10S
$$

WIZ017-030-035>037-045-020800-
CENTRAL WISCONSIN

CITY           SKY/WX    TMP DP  RH WIND       PRES   REMARKS
MEDFORD        NOT AVBL
WAUSAU         CLEAR     42  35  76 CALM      30.10S
MOSINEE        NOT AVBL
MARSHFIELD     CLEAR     43  33  68 NE3       30.10F
WISC RAPIDS    MOCLDY    36  32  85 N6        30.12R
STEVENS POINT  NOT AVBL
WAUPACA        NOT AVBL
SHAWANO        NOT AVBL
CLINTONVILLE   NOT AVBL
WAUTOMA        CLEAR     36  35  96 CALM      30.11R
$$

WIZ038-039-048-051-020800-
FOX VALLEY

CITY           SKY/WX    TMP DP  RH WIND       PRES   REMARKS
NWS GREEN BAY  CLEAR     43  37  79 N5        30.10R
APPLETON       NOT AVBL
OSHKOSH        CLEAR     43  38  82 N6        30.09R
FOND DU LAC    CLOUDY    43  38  82 NW5       30.08S
$$

WIZ022-050-052-020800-
EAST CENTRAL WISCONSIN

CITY           SKY/WX    TMP DP  RH WIND       PRES   REMARKS
EPHRAIM        NOT AVBL
STURGEON BAY   CLEAR     43  34  70 N7        30.11S
MANITOWOC      NOT AVBL
SHEBOYGAN      CLOUDY    44  36  73 N5        30.08R
$$

LMZ563-521-522-541>543-020800-
LAKESHORE

STATION/POSITION TIME  TEMP    WIND        PRES    VSBY  WAVE
                       AIR SEA DIR/SP/G                  HT/PER
                 (UTC) (F)     (DEG/KT/KT) (MB)    (MI)  (FT/S)
SHEBOYGAN LKSHOR 0600   44      10/ 13/ 14 1019.1R
KEWAUNEE LKSHORE 0600   46      10/  7/  9 1017.9S
NORTHPORT PIER   0600   42     300/  7/  9 1019.0S
N MID LAKE BUOY  0550   41 38  340/ 10/ 10 1018.7F         1
CHAMBERS ISLAND  0600   43     340/  7/  8 1019.3S
MENOMINEE LKSHOR 0600   46     340/  7/  9 1018.1R
$$




USA.gov is the U.S. government's official web portal to all federal, state and local government web resources and services.